Location: Mahannah Oil Field
(37.4664°N, 96.6003°W)
Time: 09:22:04
(UTC+00:00)

Courier 1B - Pass Details

Date: 24 January 2021
Orbit: 962 x 1209 km, 28.3° (Epoch: 02 March)

Event Time Altitude Azimuth Distance (km) Brightness Sun altitude
Rises 11:44:20 0° 256° (WSW) 3,641 - -22.0°
Reaches altitude 10° 11:49:31 10° 221° (SW) 2,721 - -21.0°
Exits shadow 11:49:51 10° 218° (SW) 2,700 9.5 -20.9°
Maximum altitude 11:51:02 11° 207° (SSW) 2,672 9.6 -20.7°
Drops below altitude 10° 11:52:34 10° 194° (SSW) 2,746 9.8 -20.4°
Sets 11:57:55 0° 159° (SSE) 3,753 11.0 -19.3°
